SIA442 WSSS-WMKK

Flight info

Callsign SIA442
Flight time 0h 36m
Altitude 24000
Route MASBO3A MASBO A457 GUPTA GUPTA1G
Aircraft B38M/M-SDE1FGHILORVWXY/HB1

Departure

Time 2026-05-05 12:43
Airport Singapore Changi Airport (WSSS)

Arrival

Time 2026-05-05 13:19
Airport Kuala Lumpur International Airport (WMKK)
Time Latitude Longitude Altitude Speed Heading
2026-05-05 12:07 1.35096 103.98833 11 ft 0 kts 292°
2026-05-05 12:25 1.35093 103.98840 11 ft 1 kts 292°
2026-05-05 12:25 1.35087 103.98852 11 ft 2 kts 293°
2026-05-05 12:25 1.35082 103.98867 11 ft 2 kts 292°
2026-05-05 12:26 1.35076 103.98880 11 ft 2 kts 292°
2026-05-05 12:26 1.35072 103.98890 11 ft 1 kts 293°
2026-05-05 12:26 1.35068 103.98904 11 ft 2 kts 268°
2026-05-05 12:26 1.35070 103.98915 11 ft 2 kts 253°
2026-05-05 12:27 1.35076 103.98929 11 ft 2 kts 232°
2026-05-05 12:27 1.35087 103.98939 11 ft 2 kts 212°
2026-05-05 12:27 1.35094 103.98943 11 ft 1 kts 199°
2026-05-05 12:27 1.35098 103.98944 11 ft 0 kts 201°
2026-05-05 12:30 1.35096 103.98943 11 ft 2 kts 201°
2026-05-05 12:30 1.35047 103.98924 11 ft 13 kts 201°
2026-05-05 12:30 1.34952 103.98888 11 ft 11 kts 180°
2026-05-05 12:30 1.34896 103.98947 11 ft 13 kts 113°
2026-05-05 12:31 1.34854 103.99044 11 ft 17 kts 114°
2026-05-05 12:31 1.34837 103.99081 11 ft 2 kts 114°
2026-05-05 12:31 1.34815 103.99110 11 ft 8 kts 149°
2026-05-05 12:31 1.34758 103.99104 11 ft 11 kts 201°
2026-05-05 12:32 1.34658 103.99062 11 ft 19 kts 203°
2026-05-05 12:32 1.34523 103.99006 11 ft 25 kts 202°
2026-05-05 12:32 1.34454 103.98977 11 ft 27 kts 203°
2026-05-05 12:32 1.34288 103.98907 11 ft 25 kts 202°
2026-05-05 12:33 1.34129 103.98840 11 ft 23 kts 202°
2026-05-05 12:33 1.34048 103.98807 11 ft 22 kts 203°
2026-05-05 12:33 1.33974 103.98776 11 ft 21 kts 202°
2026-05-05 12:33 1.33872 103.98734 11 ft 20 kts 202°
2026-05-05 12:34 1.33820 103.98712 11 ft 19 kts 202°
2026-05-05 12:34 1.33696 103.98659 11 ft 18 kts 203°
2026-05-05 12:34 1.33580 103.98611 11 ft 17 kts 202°
2026-05-05 12:35 1.33471 103.98565 11 ft 16 kts 202°
2026-05-05 12:35 1.33365 103.98521 11 ft 15 kts 202°
2026-05-05 12:35 1.33267 103.98480 11 ft 14 kts 203°
2026-05-05 12:35 1.33174 103.98441 11 ft 14 kts 202°
2026-05-05 12:36 1.33086 103.98404 11 ft 13 kts 202°
2026-05-05 12:36 1.33050 103.98389 11 ft 0 kts 202°
2026-05-05 12:37 1.33049 103.98389 11 ft 1 kts 202°
2026-05-05 12:37 1.33017 103.98376 11 ft 6 kts 202°
2026-05-05 12:37 1.32980 103.98373 11 ft 4 kts 166°
2026-05-05 12:38 1.32959 103.98384 11 ft 0 kts 138°
2026-05-05 12:39 1.32945 103.98404 11 ft 7 kts 113°
2026-05-05 12:39 1.32919 103.98461 11 ft 12 kts 115°
2026-05-05 12:39 1.32906 103.98498 11 ft 3 kts 76°
2026-05-05 12:40 1.32927 103.98525 11 ft 4 kts 32°
2026-05-05 12:40 1.32937 103.98529 11 ft 0 kts 24°
2026-05-05 12:41 1.32940 103.98531 11 ft 4 kts 24°
2026-05-05 12:42 1.33142 103.98615 11 ft 71 kts 23°
2026-05-05 12:42 1.33710 103.98856 12 ft 134 kts 23°
2026-05-05 12:42 1.35180 103.99482 465 ft 179 kts 23°
2026-05-05 12:43 1.36347 104.00009 1241 ft 185 kts 24°
2026-05-05 12:43 1.37445 104.00503 2162 ft 179 kts 23°
2026-05-05 12:43 1.38650 104.01027 2604 ft 200 kts 23°
2026-05-05 12:43 1.39999 104.01601 2959 ft 227 kts 22°
2026-05-05 12:44 1.41551 104.02188 3521 ft 246 kts 21°
2026-05-05 12:44 1.43132 104.02805 4434 ft 250 kts 22°
2026-05-05 12:44 1.44756 104.03485 5164 ft 264 kts 23°
2026-05-05 12:44 1.46471 104.04202 5972 ft 273 kts 19°
2026-05-05 12:45 1.48331 104.04619 6865 ft 279 kts
2026-05-05 12:45 1.50256 104.04537 7752 ft 283 kts 349°
2026-05-05 12:45 1.52106 104.03936 8633 ft 286 kts 333°
2026-05-05 12:45 1.53858 104.02994 9523 ft 289 kts 331°
2026-05-05 12:46 1.55629 104.02007 10320 ft 295 kts 331°
2026-05-05 12:46 1.57494 104.00979 10565 ft 321 kts 332°
2026-05-05 12:46 1.59511 103.99880 10829 ft 342 kts 332°
2026-05-05 12:46 1.61645 103.98724 11463 ft 351 kts 332°
2026-05-05 12:47 1.63776 103.97575 12171 ft 356 kts 332°
2026-05-05 12:47 1.65981 103.96389 12904 ft 360 kts 333°
2026-05-05 12:47 1.68173 103.95208 13609 ft 363 kts 333°
2026-05-05 12:47 1.70402 103.94002 14300 ft 367 kts 331°
2026-05-05 12:48 1.72482 103.92515 14939 ft 373 kts 319°
2026-05-05 12:48 1.74219 103.90590 15625 ft 377 kts 306°
2026-05-05 12:48 1.75538 103.88308 16220 ft 382 kts 294°
2026-05-05 12:48 1.76352 103.85777 16840 ft 386 kts 282°
2026-05-05 12:49 1.76798 103.83167 17451 ft 389 kts 279°
2026-05-05 12:49 1.77218 103.80456 17996 ft 394 kts 279°
2026-05-05 12:49 1.77628 103.77759 18566 ft 397 kts 279°
2026-05-05 12:49 1.78040 103.75030 19098 ft 401 kts 279°
2026-05-05 12:50 1.78459 103.72256 19651 ft 404 kts 279°
2026-05-05 12:50 1.78778 103.70132 20050 ft 406 kts 279°
2026-05-05 12:50 1.79190 103.67358 20541 ft 410 kts 278°
2026-05-05 12:50 1.79602 103.64497 21056 ft 413 kts 278°
2026-05-05 12:51 1.80007 103.61679 21532 ft 416 kts 278°
2026-05-05 12:51 1.80420 103.58800 21988 ft 420 kts 278°
2026-05-05 12:51 1.80835 103.55913 22456 ft 423 kts 278°
2026-05-05 12:51 1.81254 103.53000 22906 ft 425 kts 278°
2026-05-05 12:52 1.81679 103.50050 23331 ft 429 kts 278°
2026-05-05 12:52 1.82103 103.47102 23751 ft 431 kts 278°
2026-05-05 12:52 1.82533 103.44119 23847 ft 436 kts 278°
2026-05-05 12:52 1.82964 103.41128 23849 ft 442 kts 278°
2026-05-05 12:53 1.83407 103.38048 23851 ft 448 kts 278°
2026-05-05 12:53 1.83937 103.35000 23841 ft 449 kts 283°
2026-05-05 12:53 1.84712 103.31971 23843 ft 447 kts 287°
2026-05-05 12:53 1.85660 103.29044 23842 ft 446 kts 290°
2026-05-05 12:54 1.87942 103.23262 23839 ft 447 kts 294°
2026-05-05 12:54 1.89168 103.20453 23837 ft 447 kts 294°
2026-05-05 12:54 1.90459 103.17597 23834 ft 447 kts 295°
2026-05-05 12:55 1.91753 103.14808 23832 ft 447 kts 295°
2026-05-05 12:55 1.93085 103.11984 23831 ft 447 kts 296°
2026-05-05 12:55 1.94433 103.09158 23831 ft 447 kts 296°
2026-05-05 12:55 1.95767 103.06384 23831 ft 447 kts 296°
2026-05-05 12:56 1.97113 103.03600 23831 ft 448 kts 296°
2026-05-05 12:56 1.98477 103.00789 23831 ft 448 kts 296°
2026-05-05 12:56 1.99834 102.97998 23830 ft 448 kts 296°
2026-05-05 12:56 2.01192 102.95213 23831 ft 447 kts 296°
2026-05-05 12:57 2.02562 102.92404 23830 ft 447 kts 296°
2026-05-05 12:57 2.03918 102.89631 23831 ft 447 kts 296°
2026-05-05 12:57 2.05271 102.86861 23831 ft 447 kts 296°
2026-05-05 12:57 2.06646 102.84038 23831 ft 447 kts 296°
2026-05-05 12:58 2.07995 102.81269 23831 ft 447 kts 296°
2026-05-05 12:58 2.08478 102.80280 23831 ft 447 kts 296°
2026-05-05 12:58 2.09840 102.77483 23722 ft 443 kts 296°
2026-05-05 12:58 2.11167 102.74760 22758 ft 441 kts 296°
2026-05-05 12:59 2.12463 102.72102 22388 ft 413 kts 296°
2026-05-05 12:59 2.13743 102.69640 21946 ft 393 kts 301°
2026-05-05 12:59 2.15276 102.67424 21130 ft 384 kts 310°
2026-05-05 13:00 2.18967 102.63865 19832 ft 362 kts 324°
2026-05-05 13:00 2.21013 102.62407 19056 ft 356 kts 328°
2026-05-05 13:01 2.27135 102.58738 17713 ft 336 kts 334°
2026-05-05 13:01 2.29154 102.57666 17304 ft 332 kts 334°
2026-05-05 13:01 2.31175 102.56619 16867 ft 331 kts 335°
2026-05-05 13:01 2.33227 102.55566 16441 ft 328 kts 335°
2026-05-05 13:02 2.35249 102.54533 16005 ft 326 kts 334°
2026-05-05 13:02 2.37234 102.53519 15587 ft 324 kts 334°
2026-05-05 13:02 2.39232 102.52501 15165 ft 322 kts 334°
2026-05-05 13:02 2.41228 102.51484 14735 ft 320 kts 334°
2026-05-05 13:03 2.43189 102.50484 14321 ft 318 kts 334°
2026-05-05 13:03 2.45151 102.49484 13894 ft 316 kts 334°
2026-05-05 13:03 2.47097 102.48492 13487 ft 314 kts 334°
2026-05-05 13:03 2.49026 102.47505 13065 ft 312 kts 332°
2026-05-05 13:04 2.50860 102.46346 12649 ft 311 kts 324°
2026-05-05 13:04 2.52478 102.44949 12249 ft 309 kts 316°
2026-05-05 13:04 2.53957 102.43411 11845 ft 307 kts 313°
2026-05-05 13:04 2.55398 102.41840 11442 ft 305 kts 313°
2026-05-05 13:05 2.56811 102.40295 11074 ft 302 kts 313°
2026-05-05 13:05 2.58242 102.38735 10662 ft 301 kts 313°
2026-05-05 13:05 2.59642 102.37213 10274 ft 298 kts 313°
2026-05-05 13:05 2.61049 102.35686 9882 ft 296 kts 313°
2026-05-05 13:06 2.62427 102.34190 9740 ft 286 kts 313°
2026-05-05 13:06 2.63758 102.32746 9814 ft 285 kts 313°
2026-05-05 13:06 2.65106 102.31285 9796 ft 284 kts 313°
2026-05-05 13:06 2.66448 102.29829 9803 ft 284 kts 313°
2026-05-05 13:07 2.67778 102.28386 9802 ft 284 kts 313°
2026-05-05 13:07 2.69103 102.26906 9722 ft 282 kts 307°
2026-05-05 13:07 2.69818 102.25108 9238 ft 286 kts 274°
2026-05-05 13:07 2.69470 102.23193 8922 ft 282 kts 246°
2026-05-05 13:08 2.68542 102.21458 8590 ft 280 kts 239°
2026-05-05 13:08 2.67508 102.19801 8191 ft 281 kts 238°
2026-05-05 13:08 2.66478 102.18185 7844 ft 279 kts 237°
2026-05-05 13:08 2.65430 102.16544 7485 ft 278 kts 237°
2026-05-05 13:09 2.64399 102.14928 7138 ft 276 kts 237°
2026-05-05 13:09 2.63356 102.13296 6781 ft 275 kts 237°
2026-05-05 13:09 2.62330 102.11688 6433 ft 274 kts 237°
2026-05-05 13:09 2.61308 102.10089 6084 ft 272 kts 237°
2026-05-05 13:10 2.60297 102.08507 5740 ft 271 kts 237°
2026-05-05 13:10 2.59287 102.06925 5419 ft 269 kts 237°
2026-05-05 13:10 2.58277 102.05344 5058 ft 268 kts 238°
2026-05-05 13:10 2.57287 102.03793 4991 ft 265 kts 238°
2026-05-05 13:11 2.56286 102.02228 4996 ft 269 kts 238°
2026-05-05 13:11 2.55284 102.00658 4989 ft 268 kts 238°
2026-05-05 13:11 2.54283 101.99092 4992 ft 267 kts 237°
2026-05-05 13:11 2.53290 101.97536 4981 ft 259 kts 237°
2026-05-05 13:12 2.52310 101.96034 4870 ft 259 kts 236°
2026-05-05 13:12 2.51291 101.94532 4403 ft 264 kts 236°
2026-05-05 13:12 2.50271 101.93040 4071 ft 256 kts 236°
2026-05-05 13:12 2.49454 101.91485 3852 ft 248 kts 251°
2026-05-05 13:13 2.49135 101.89838 3601 ft 240 kts 269°
2026-05-05 13:13 2.49319 101.88203 3462 ft 229 kts 286°
2026-05-05 13:13 2.49903 101.86772 3472 ft 220 kts 302°
2026-05-05 13:13 2.50889 101.85667 3477 ft 214 kts 320°
2026-05-05 13:14 2.52078 101.84753 3481 ft 214 kts 324°
2026-05-05 13:14 2.53301 101.83905 3475 ft 214 kts 326°
2026-05-05 13:14 2.54515 101.83083 3475 ft 214 kts 326°
2026-05-05 13:14 2.55758 101.82247 3473 ft 214 kts 326°
2026-05-05 13:15 2.56976 101.81429 3455 ft 215 kts 326°
2026-05-05 13:15 2.58234 101.80586 3166 ft 217 kts 326°
2026-05-05 13:15 2.59461 101.79764 2922 ft 208 kts 326°
2026-05-05 13:15 2.60648 101.78967 2632 ft 206 kts 326°
2026-05-05 13:16 2.61833 101.78173 2347 ft 204 kts 326°
2026-05-05 13:16 2.62995 101.77394 2064 ft 199 kts 326°
2026-05-05 13:16 2.64088 101.76660 1802 ft 188 kts 327°
2026-05-05 13:16 2.65135 101.75959 1577 ft 177 kts 327°
2026-05-05 13:17 2.66136 101.75287 1318 ft 167 kts 327°
2026-05-05 13:17 2.67054 101.74671 1109 ft 155 kts 327°
2026-05-05 13:17 2.67922 101.74090 909 ft 147 kts 327°
2026-05-05 13:17 2.68745 101.73535 752 ft 144 kts 327°
2026-05-05 13:18 2.69547 101.72977 527 ft 137 kts 327°
2026-05-05 13:18 2.70327 101.72459 273 ft 137 kts 328°
2026-05-05 13:18 2.71115 101.71940 187 ft 133 kts 328°
2026-05-05 13:18 2.71838 101.71465 77 ft 99 kts 327°
2026-05-05 13:19 2.72302 101.71159 76 ft 73 kts 326°
2026-05-05 13:19 2.72654 101.70920 76 ft 55 kts 326°
2026-05-05 13:19 2.72932 101.70735 76 ft 36 kts 330°
2026-05-05 13:19 2.73050 101.70700 76 ft 19 kts 349°
2026-05-05 13:20 2.73223 101.70679 76 ft 26 kts 356°
2026-05-05 13:20 2.73379 101.70661 76 ft 15 kts 333°
2026-05-05 13:20 2.73456 101.70611 76 ft 13 kts 326°
2026-05-05 13:20 2.73899 101.70314 76 ft 16 kts 326°
2026-05-05 13:21 2.74348 101.70014 76 ft 17 kts 327°
2026-05-05 13:21 2.74408 101.70010 76 ft 10 kts 38°
2026-05-05 13:21 2.74598 101.70296 76 ft 18 kts 56°
2026-05-05 13:21 2.74945 101.70802 76 ft 16 kts 63°
2026-05-05 13:22 2.74919 101.70867 76 ft 14 kts 146°
2026-05-05 13:22 2.74799 101.70944 76 ft 22 kts 146°
2026-05-05 13:22 2.74746 101.71014 76 ft 13 kts 78°
2026-05-05 13:22 2.74783 101.71076 76 ft 9 kts 55°
2026-05-05 13:23 2.74791 101.71104 76 ft 2 kts 123°
2026-05-05 13:23 2.74768 101.71121 76 ft 2 kts 146°
2026-05-05 13:23 2.74746 101.71135 76 ft 4 kts 146°
2026-05-05 13:23 2.74733 101.71144 76 ft 0 kts 146°